Regional Weather Roundup
Issued by NWS

Home | Current Version | Previous Version | Graphics & Text | Print | Product List | Glossary On
Versions: 1 2 3 4 5 6 7 8 9 10 11 12 13 14 15 16 17 18 19 20 21 22 23 24 25 26 27 28 29 30 31 32 33 34 35 36 37 38 39 40 41 42 43 44 45 46 47 48 49 50
000
ASUS43 KMPX 260410
RWRMN
WEATHER ROUNDUP FOR MINNESOTA
NATIONAL WEATHER SERVICE TWIN CITIES/CHANHASSEN MN
1100 PM CDT TUE APR 25 2017


NOTE: "FAIR" INDICATES FEW OR NO CLOUDS BELOW 12,000 FEET WITH NO
SIGNIFICANT WEATHER AND/OR OBSTRUCTIONS TO VISIBILITY. N/A MEANS
CURRENT SKY AND/OR WEATHER CONDITIONS ARE NOT AVAILABLE.

MNZ060>063-068>070-260500-
   Twin Cities Metro

CITY           SKY/WX    TMP DP  RH WIND       PRES   REMARKS
TWIN CITIES    CLOUDY    52  49  89 N12       29.54F
ST PAUL        CLOUDY    53  53 100 CALM      29.54F
CRYSTAL        LGT RAIN  49  45  86 N14       29.55F
BLAINE         DRIZZLE   48  48 100 NE13      29.56F
LAKEVILLE      CLOUDY    52  52 100 NE7       29.52F FOG
EDEN PRAIRIE   LGT RAIN  51  49  92 N14       29.52F
SOUTH ST PAUL  CLOUDY    55  54  99 NE5       29.53F
LAKE ELMO      CLOUDY    52  52 100 N9        29.55F
$$
MNZ001>005-007-008-013>017-022>024-027-028-260500-
   Northwest Minnesota

CITY           SKY/WX    TMP DP  RH WIND       PRES   REMARKS
BEMIDJI        CLOUDY    29  27  90 NE15G22   29.80F WCI  18
HALLOCK        CLOUDY    34  25  69 NE20      29.94S WCI  22
ROSEAU         CLOUDY    30  25  80 NE22G28   29.92F WCI  17
WARROAD        CLOUDY    30  25  80 NE21G37   29.93F WCI  17
THIEF RVR FALL CLOUDY    30  26  85 NE22G29   29.88S WCI  17
CROOKSTON      CLOUDY    32  28  86 NE16G22   29.88S WCI  21
FOSSTON        CLOUDY    28  27  93 NE16G24   29.82F WCI  17
DETROIT LAKES  MIX PCPN  32  32 100 NE13      29.76S WCI  22
MOORHEAD       CLOUDY    34  28  80 N22G28    29.81F WCI  22
PARK RAPIDS    MIX PCPN  32  27  81 NE13G18   29.74F WCI  22
MAHNOMEN       CLOUDY    31  28  88 NE17G24   29.78F WCI  20
$$
MNZ006-009>011-018-025>026-260500-
   North Central Minnesota

CITY           SKY/WX    TMP DP  RH WIND       PRES   REMARKS
BAUDETTE       CLOUDY    29  22  75 NE18G24   29.90F WCI  16
FLAG ISLAND    CLOUDY    28  23  80 NE17G28   29.95F WCI  16
INTL FALLS     CLOUDY    27  21  78 NE17G25   29.89S WCI  14
WASKISH        CLOUDY    28  25  86 NE17G23   29.86F WCI  16
BIG FORK       MIX PCPN  28  25  86 NE13G20   29.82F WCI  18
LONGVILLE      MIX PCPN  30  28  93 N9G16     29.76F WCI  22
GRAND RAPIDS   FLURRIES  29  27  92 N14G20    29.79S WCI  18
CRANE LAKE     CLOUDY    27  23  86 NE6       29.89S WCI  20
ORR            DRIZZLE   27  23  86 NE5       29.82S WCI  21
COOK           MIX PCPN  27  25  93 N8        29.82F WCI  18
WALKER         MIX PCPN  30  27  90 NE13G24   29.77F WCI  20
$$
MNZ012-019>021-037-260500-
   Northeast Minnesota

CITY           SKY/WX    TMP DP  RH WIND       PRES   REMARKS
DULUTH         LGT RAIN  38  36  92 NE10      29.73S
ELY            MIX PCPN  27  27 100 NE10G18   29.81S WCI  17
HIBBING        FRZ RAIN  29  28  96 N13       29.77F WCI  19
EVELETH        MIX PCPN  32  29  88 NE13G18   29.78F WCI  23
DULUTH HARBOR  LGT RAIN  39  37  93 E20       29.76F
TWO HARBORS    LGT RAIN  39  34  81 NE3       29.75R
SILVER BAY     LGT RAIN  36  34  93 N6        29.75S
GRAND MARAIS     N/A     34  30  85 N9G24     29.77S WCI  27
G MARAIS ARPRT LGT SNOW  27  21  80 N8        29.74F WCI  18
$$
MNZ029>031-032-039>041-046>048-054>057-064-260500-
   West Central Minnesota

CITY           SKY/WX    TMP DP  RH WIND       PRES   REMARKS
FERGUS FALLS   CLOUDY    36  36 100 N8        29.73F
WHEATON        DRIZZLE   36  32  87 N18G25    29.75F
MORRIS         MIX PCPN  39  37  93 N14       29.68S
ALEXANDRIA     LGT RAIN  37  35  92 NE14G24   29.67F
ELBOW LAKE     DRIZZLE   37  35  90 NE14G20   29.71S
WADENA         FLURRIES  32  30  93 NE12G20     N/A  WCI  23
GLENWOOD       LGT RAIN  37  36  93 N18       29.65F
APPLETON       RAIN      39  37  93 N15G21    29.67F
BENSON         LGT RAIN  43  36  75 NE10G17   29.67S
ORTONVILLE     LGT RAIN  36  34  93 N17G24    29.70S
MADISON        MIX PCPN  39  39 100 N20       29.68S
WILLMAR        RAIN      43  43 100 N14G20    29.62S
$$
MNZ033>034-036-042>043-049>051-058-059-260500-
   Central Minnesota

CITY           SKY/WX    TMP DP  RH WIND       PRES   REMARKS
ST CLOUD       LGT RAIN  45  44  97 NE12      29.61F
SAUK CENTRE    LGT RAIN  38  37  92 N14       29.65S
PAYNESVILLE    RAIN      43  43 100 N15G21    29.62S
AITKIN         MIX PCPN  36  30  80 N10G16    29.71S
PINE RIVER     MIX PCPN  32  30  93 N13G18    29.77S WCI  22
BRAINERD       LGT RAIN  35  33  92 NE14      29.70F WCI  26
STAPLES        DRIZZLE   34  32  93 N9G16     29.71S WCI  26
LONG PRAIRIE   MIX PCPN  36  34  93 NW13      29.66F
LITTLE FALLS   MIX PCPN  37  36  93 N8        29.66F
LITCHFIELD     LGT RAIN  48  46  93 NE10      29.59S
BUFFALO        CLOUDY    47  44  90 N15G21    29.58F
MAPLE LAKE     DRIZZLE   47  46  95 NE10G18   29.59F
HUTCHINSON     RAIN      48  47  97 N13       29.56F
$$
MNZ037-044-045-052-053-260500-
   East Central Minnesota

CITY           SKY/WX    TMP DP  RH WIND       PRES   REMARKS
PRINCETON      LGT RAIN  46  45  93 N13G22    29.61F
MORA           LGT RAIN  41  37  87 NE8       29.66S
CAMBRIDGE      RAIN      46  43  87 NE9G17    29.60S
RUSH CITY      LGT RAIN  43  41  93 NE12G22   29.63S
MOOSE LAKE     LGT RAIN  41  37  87 NE10G17   29.68S
HINCKLEY       LGT RAIN  43  41  93 NE13G25   29.65F
CLOQUET        RAIN      39  36  87 NE8       29.72S
MCGREGOR       CLOUDY    34  32  93 N13G22    29.72S WCI  25
$$
MNZ071>073-080-081-089-090-097-098-260500-
   Southwest Minnesota

CITY           SKY/WX    TMP DP  RH WIND       PRES   REMARKS
MONTEVIDEO     DRIZZLE   39  39 100 N16       29.64F
GRANITE FALLS  LGT RAIN  43  41  93 NW13G18   29.64F
CANBY          RAIN      37  36  96 NW15G21   29.68F
MARSHALL       LGT RAIN  38  37  97 NW20      29.63F
REDWOOD FALLS  LGT RAIN  43  41  93 NW10      29.58F FOG
OLIVIA         RAIN      43  41  93 N12       29.58F
PIPESTONE      LGT RAIN  37  34  87 N12G20    29.62F
WINDOM         LGT RAIN  39  39 100 NW20      29.57S
WORTHINGTON    RAIN      38  37  97 NW23      29.59F
JACKSON        RAIN      39  39 100 NW21G26   29.56F
TRACY          LGT RAIN  39  38  99 NW17G24   29.62F
SLAYTON        LGT RAIN  36  36  97 NW15G26   29.61F
$$
MNZ065>067-074>077-082>085-091>093-260500-
   South Central Minnesota

CITY           SKY/WX    TMP DP  RH WIND       PRES   REMARKS
MANKATO        LGT RAIN  50  49  96 N8        29.51F FOG
NEW ULM        RAIN      46  46 100 N8        29.54F
ST JAMES       DRIZZLE   45  45 100 W17       29.55F
FAIRMONT       LGT RAIN  44  43  96 NW14      29.53F FOG
GLENCOE        LGT RAIN  49  49 100 N10       29.54F
FARIBAULT      DRIZZLE   54  52  94 N7        29.52F
OWATONNA       CLOUDY    54  52  94 NE8       29.50F FOG
WASECA         CLOUDY    52  50  93 NE13      29.50F FOG
ALBERT LEA     RAIN      50  48  93 NE6       29.49F
$$
MNZ078>079-086>088-094>096-260500-
   Southeast Minnesota

CITY           SKY/WX    TMP DP  RH WIND       PRES   REMARKS
ROCHESTER      LGT RAIN  53  52  96 NE8       29.51F FOG
RED WING       CLOUDY    55  54  94 SE3       29.52S
STANTON        RAIN      55  52  92 NE7       29.51F
DODGE CENTER   RAIN      54  52  94 NE8       29.51S
WINONA         CLOUDY    55  52  88 NE3       29.51F
AUSTIN         RAIN      54  52  94 NE6       29.49F
PRESTON        CLOUDY    54  50  87 NE8       29.49F
$$
ABBREVIATIONS USED IN REMARKS
   TC - TEMPERATURES IN CELSIUS
  WCI - WIND CHILL INDEX
   HX - HEAT INDEX
  VSB - VISIBILITY
$$



USA.gov is the U.S. government's official web portal to all federal, state and local government web resources and services.